Current Version              Previous Version:    01  02  03  04  05  06  07  08  09  10  11  12  13  14  15  16  17  18  19  20  21  22  23  24  25  26  27  28  29  30  
   31  32  33  34  35  36  37  38  39  40  41  42  43  44  45  46  47  48  49  50  51  52  53  54  55  56  57  58  59  60  

[Printable]
289
ASUS44 KEWX 020202
RWRTX
SOUTH TEXAS REGIONAL WEATHER ROUNDUP
NATIONAL WEATHER SERVICE AUSTIN/SAN ANTONIO TX
900 PM CDT WED OCT 01 2014

NOTE: "FAIR" INDICATED FEW OR NO CLOUDS BELOW 12,000 FEET WITH NO
SIGNIFICANT WEATHER AND/OR OBSTRUCTIONS TO VISIBILITY.

* - THESE STATIONS ARE NOT NWS OR FAA STATIONS...AND ARE NOT SUBJECT
    TO NWS AND FAA QUALITY CONTROL.

TXZ171-172-183>190-020300-
TEXAS HILL COUNTRY AND EDWARDS PLATEAU

CITY           SKY/WX    TMP DP  RH WIND       PRES   REMARKS
JUNCTION       CLEAR     83  64  52 S8        29.81R
*LLANO         CLEAR     82  68  61 CALM      29.82R
BURNET         CLEAR     81  66  60 SE5       29.83R
*HORSESHOE BAY CLEAR     79  65  62 SE3       29.81R
*KERRVILLE     CLEAR     79  69  72 SE7       29.83R
*FREDERICKSBRG CLEAR     78  66  67 SE5       29.84R
*ROCKSPRINGS   CLEAR     79  64  61 SE9       29.87R
*BOERNE STAGE  CLEAR     79  64  61 S3        29.84R
*CASTROVILLE   CLEAR     84  65  53 SE9       29.81R
HONDO          CLEAR     85  67  54 SE10      29.81R
*UVALDE        CLEAR     81  68  64 SE5       29.78R
DEL RIO        PTCLDY    84  65  52 SE9       29.75R
LAUGHLIN AFB   MOCLDY    81  69  65 S6        29.77R
CARRIZO SPRGS  CLEAR     82  70  65 SE6       29.75R
$$

TXZ173-191>194-202-209-217>225-228-020300-
CENTRAL AND SOUTH CENTRAL TEXAS

CITY           SKY/WX    TMP DP  RH WIND       PRES   REMARKS
GEORGETOWN     CLEAR     82  66  57 S5        29.80R
AUSTIN/BERGSTM PTCLDY    80  70  71 S5        29.79R
AUSTIN/MABRY   CLEAR     84  70  62 SE3       29.80R
*AUSTIN/EXEC   MOCLDY    81  68  65 SE6       29.80R
*LAGO VISTA    CLEAR     83  65  54 S3        29.83R
SAN MARCOS     CLEAR     81  66  61 S12       29.80R
NEW BRAUNFELS  CLEAR     79  68  69 SE10      29.79R
RANDOLPH AFB   CLEAR     81  67  61 S8        29.80R
PT SAN ANTONIO CLEAR     84  68  59 SE10      29.79R
SAN ANTONIO    PTCLDY    85  67  54 S9        29.80R
STINSON FIELD  CLEAR     81  68  64 SE5       29.78R
*PLEASANTON    CLEAR     83  69  61 SE7       29.79R
*LA GRANGE     CLEAR     83  74  75 S8        29.79R HX  90
*GIDDINGS      CLEAR     83  70  65 S5        29.83R
*GONZALES      CLEAR     83  72  68 S12G17    29.80R
$$

TXZ163>164-176>182-195>201-210>213-226-227-235-020300-
SOUTHEAST TEXAS

CITY           SKY/WX    TMP DP  RH WIND       PRES   REMARKS
COLLEGE STN    CLEAR     83  72  69 SE9       29.81R
*BRYAN         CLEAR     79  73  80 SE6       29.82R
*CALDWELL      CLEAR     81  72  74 SE6       29.82R
*CROCKETT      PTCLDY    82  77  83 E5        29.84R HX  91
*BRENHAM       CLEAR     84  72  67 S9        29.82R HX  90
HUNTSVILLE     CLEAR     83  73  72 VRB3      29.82R
CONROE         PTCLDY    80  73  79 SE7       29.83R
HOUSTON BUSH   PTCLDY    82  74  76 S9        29.83R
HOUSTON HOBBY  PTCLDY    79  76  90 S7        29.83R
*HOUSTON SW AP CLEAR     69  67  94 SE5       29.84R
PEARLAND       CLEAR     81  76  84 SE6       29.85R
HOUSTON HOOKS  CLEAR     83  72  69 S8        29.82R
ELLINGTON FLD  NOT AVBL
SUGAR LAND     CLEAR     80  74  81 S8        29.83R
*HOUSTON EXEC  CLEAR     77  73  88 S8        29.84R
*CLEVELAND MUN CLEAR     77  75  92 CALM      29.85R
*WHARTON       CLEAR     78  74  88 SE7       29.83R
*COLUMBUS      FAIR      80  74  83 S7        29.82R
$$

TXZ214>216-236>238-020300-
THE UPPER TEXAS COAST

CITY           SKY/WX    TMP DP  RH WIND       PRES   REMARKS
*ORANGE        MOCLDY    80  80 100 SE5       29.87R HX  90
PORT ARTHUR    CLEAR     79  76  90 SE6       29.85R
GALVESTON      CLEAR     82  79  90 S14       29.85R HX  92
ANGLETON       CLEAR     76  75  97 S3        29.84R
*BAY CITY      CLEAR     80  77  92 SE5       29.83R
PALACIOS       CLEAR     81  77  88 SE8       29.82R
$$

TXZ229>234-239>247-020300-
TEXAS COASTAL BEND AND RIO GRANDE PLAINS

CITY           SKY/WX    TMP DP  RH WIND       PRES   REMARKS
VICTORIA       CLEAR     81  77  88 SE10      29.82R
*BEEVILLE      CLEAR     81  77  89 SE12      29.81R
ROCKPORT       CLEAR     83  78  85 S9        29.80R HX  93
*PORT ARANSAS  CLEAR     82  79  90 S10       29.81R HX  92
*PORT LAVACA   CLEAR     79  77  92 SE7       29.82R
*INGLESIDE     CLEAR     83  79  87 SE12      29.80R HX  94
CORPUS CHRISTI PTCLDY    82  78  88 SE13      29.80R HX  91
CORPUS NAS     PTCLDY    83  80  91 SE13      29.81R HX  95
*ROBSTOWN      NOT AVBL
ALICE          PTCLDY    82  78  88 SE13      29.79R HX  91
KINGSVILLE NAS PTCLDY    82  80  94 SE10      29.80R HX  94
COTULLA        CLEAR     87  70  56 SE13      29.77R HX  92
*FAITH RANCH   CLEAR     84  68  58 SE6       29.76R
LAREDO         CLEAR     86  73  64 SE9       29.79R HX  93
$$

TXZ248>255-020300-
DEEP SOUTH TEXAS

CITY           SKY/WX    TMP DP  RH WIND       PRES   REMARKS
BROWNSVILLE    CLEAR     82  81  96 SE9       29.81R HX  95
PORT ISABEL    CLEAR     83  78  85 S12       29.80R HAZE    HX  93
*SOUTH PADRE   PTCLDY    84  81  89 S10       29.80R HX  98
HARLINGEN      CLEAR     81  77  88 SE7       29.79R
*HEBBRONVILLE  CLEAR     83  73  72 SE8       29.80R
MCALLEN        CLEAR     82  76  81 SE13      29.80R
*WESLACO       CLEAR     82  75  79 SE8       29.80R
FALFURRIAS     CLEAR     82  78  88 SE5       29.78R HX  90
EDINBURG       CLEAR     83  75  77 SE7       29.80R HX  90
*ZAPATA        CLEAR     85  72  65 SE5       29.76R HX  90
$$

TXZ213>215-236>238-242>244-246-247-251-254-255-020300-
CMAN STATIONS

STATION/POSITION TIME  TEMP    WIND        PRES    WAVE
                       AIR SEA DIR/SP/G            HT/PER
                 (UTC) (F)     (DEG/KT/KT) (MB)    (FT/S)
SABINE PASS      0100   82 82  180/ 10/ 12 1010.9
SEA RIM ST PARK  0100   82     180/  9/ 11 1010.8
NORTH JETTY/GLS  0100   82 82  190/ 12/ 13   N/A
EAGLE POINT      0100   82 84  190/ 10/ 12 1010.3
MORGANS POINT    0100   82     170/  7/ 10 1010.1
MISSION/ARANSAS  0100          130/ 12     1010.0
PORT O`CONNOR    0100          130/ 11/ 12   N/A
PORT ARANSAS     0100   83 84  140/ 15/ 16 1009.4
MALAQUITE BEACH  0100   83 83  130/ 15/ 17 1008.3
BAFFIN BAY       0100   83 87  150/ 14/ 19 1008.7
PORT ISABEL      0100   84 84  140/ 12/ 16 1009.4
$$

GMZ080-GMZ150>470-020300-
OFFSHORE BUOY REPORTS

STATION/POSITION TIME  TEMP    WIND        PRES    WAVE
                       AIR SEA DIR/SP/G            HT/PER
                 (UTC) (F)     (DEG/KT/KT) (MB)    (FT/S)
20 E GALVESTON   0100   83 83  170/ 12/ 14 1009.6    2/ 5
90 E PT ARANSAS  0100   83 84  150/ 10/ 12 1010.1    2/ 5
35 NE PT MANSFLD 0100   84 84  150/ 16/ 17 1008.1    2/ 4
200 E PT ISABEL  0100   84 84  160/ 12/ 14 1011.2    2/ 4
$$